FREGAT DEB, 45944

Orbit data source: Space-Track

FREGAT DEB, 45944 is space debris in LEO originally from a launch on Mon, 18 Jul 2011 UTC launched from the Tyuratam Missile And Space Complex (TTMTR). Debris objects in space refer to the collection of defunct objects orbiting the Earth. Examples of debris include non-operational satellites, rocket bodies, and fragments generated from explosions, collisions, or faulty payload assembly.

Loading next visibility...
Identifier
45944, 2011-037EZ
Orbit
LEO
Country
Flag of CISCIS
Related business
Manufacturer
Lavochkin
Mission
Spacecraft
Bus & Motor
Unknown
Mass
Unknown
Launch date (UTC)
2011-07-18 (15 years ago)
Launch vehicle
Unknown
Launch site
Tyuratam Missile And Space Complex (TTMTR)
Object type
Payload
Rocket body
Debris
Shape & HBR
Unknown shape, 0.1 m
Radar Cross Section
Small (<0.1 m²)

Expand to show TLE details & history
Last TLE update: 3 months ago

TLE from 3 months ago
0 FREGAT DEB
1 45944U 11037EZ  25342.17271110  .00016740  00000-0  64907-1 0  9999
2 45944  51.2060  29.5072 2258070 264.0625  70.0434  9.69496861187165
Epoch: 2025-12-08T04:08Z
TLE epoch observation values (Epoch: 2025-12-08T04:08:42.239Z)
Latitude
-0.00004°
Longitude
-109.84438°
Altitude
2,652.85 km
Speed
6.737 km/s
True Right ascension
01h 58m 01s
True Declination
0° 00' 00"
Sunlit
Object was in daylight at epoch
Visualization orbit readout
Latitude
Unknown
Longitude
Unknown
Altitude
Unknown
Speed
Unknown
Apparent Right ascension
Unknown
Apparent Declination
Unknown
Sunlit
N/A
Visualization observer readout
Local Sidereal Time
19:02:36
Azimuth
Unknown
Elevation
Unknown
Doppler factor
Unknown
Orbital elements
Apogee altitude
5,010.748 km
Perigee altitude
814.835 km
Semi-major axis
9,290.929 km
Eccentricity
0.22581
Inclination
51.206°
RAAN
29.5072°
Arg. of periapsis
264.0625°
True anomaly
96.01665°
Mean anomaly
70.0434°
Eccentric anomaly
82.88146°
Mean motion
2.42356 °/min
Orbital period
148.54 mins
BSTAR
0.064907
Loading maneuver chart data...
Computing Atmospheric mass density...
Loading historical data...
Loading historical data...
Loading historical data...
Loading historical data...
Loading historical data...
Loading historical data...
Loading historical data...

Documentation

Showing up to 5 results
|